BADR-7 (ARABSAT-6B)

Last updated on Wed Sep 23 2026 00:03:32 GMT+0000 (Coordinated Universal Time)

1 41029U 15065B 26265.56339821 .00000142 00000+0 00000+0 0 9996 2 41029 0.0504 241.2948 0006824 339.0787 9.9124 1.00275285 39742
UTC large
Height (km)
Speed (km/s)
/
Latitude / Longitude
Inclination (degrees)
Orbital Period (minutes)
Azimuth
Elevation
Range (km)
Doppler Factor

Next 0 passes for location: London (51.5072 / 0.1276)

No passes found over London.